This is the latest recevied weather packets stored in our database for station/object OH6GKW. If no packets are shown the sender has not sent any weather packets the latest 10 day(s).
| Time | Temp. | Humidity | Pressure | Rain* | Wind** | Luminosity | Snow |
|---|---|---|---|---|---|---|---|
| 1788359322 | 18.89° C | 66% | 1002.7 hPa | 0.25 mm | - | 318 W/m² | - |
| 1788359013 | 18.33° C | 67% | 1002.7 hPa | 0.25 mm | - | 331 W/m² | - |
| 1788358726 | 18.89° C | 67% | 1002.7 hPa | 0.25 mm | - | 338 W/m² | - |
| 1788358417 | 18.89° C | 66% | 1002.8 hPa | 0.25 mm | - | 347 W/m² | - |
| 1788358109 | 18.33° C | 65% | 1002.8 hPa | 0.25 mm | - | 357 W/m² | - |
| 1788357835 | 18.33° C | 65% | 1002.8 hPa | 0.25 mm | - | 366 W/m² | - |
| 1788357536 | 18.33° C | 64% | 1002.8 hPa | 0.25 mm | - | 373 W/m² | - |
| 1788357228 | 18.33° C | 65% | 1002.8 hPa | 0.25 mm | - | 382 W/m² | - |
| 1788356923 | 18.33° C | 63% | 1002.8 hPa | 0.25 mm | - | 391 W/m² | - |
| 1788356619 | 18.33° C | 63% | 1002.7 hPa | 0.25 mm | - | 399 W/m² | - |
| 1788356314 | 18.33° C | 63% | 1002.7 hPa | 0.25 mm | - | 406 W/m² | - |
| 1788356025 | 18.33° C | 64% | 1002.7 hPa | 0.25 mm | - | 415 W/m² | - |
| 1788355715 | 18.33° C | 64% | 1002.7 hPa | 0.25 mm | - | 422 W/m² | - |
| 1788355429 | 18.33° C | 62% | 1002.7 hPa | 0.25 mm | - | 431 W/m² | - |
| 1788355132 | 18.33° C | 63% | 1002.7 hPa | 0.25 mm | - | 438 W/m² | - |
| 1788354823 | 18.33° C | 63% | 1002.9 hPa | 0.25 mm | - | 445 W/m² | - |
| 1788354515 | 18.33° C | 64% | 1002.9 hPa | 0.25 mm | - | 452 W/m² | - |
| 1788354211 | 18.33° C | 64% | 1002.9 hPa | 0.25 mm | - | 459 W/m² | - |
| 1788353922 | 17.78° C | 62% | 1003.1 hPa | 0.25 mm | - | 260 W/m² | - |
| 1788353617 | 18.33° C | 62% | 1003.1 hPa | 0.25 mm | - | 472 W/m² | - |
| 1788353312 | 18.33° C | 62% | 1003.1 hPa | 0.25 mm | - | 480 W/m² | - |
| 1788353024 | 17.78° C | 62% | 1003.1 hPa | 0.25 mm | - | 486 W/m² | - |
| 1788352720 | 17.78° C | 62% | 1003.1 hPa | 0.25 mm | - | 493 W/m² | - |
| 1788352415 | 18.33° C | 62% | 1003.1 hPa | 0.25 mm | - | 496 W/m² | - |
| 1788352108 | 17.78° C | 63% | 1003.2 hPa | 0.25 mm | - | 505 W/m² | - |
* Rain since midnight (hover to see other rain measurements)
** Current wind speed in m/s (hover to see current wind gust speed)